Zurück zum Katalog

STARLINK-32564

AktivKommunikationVLEO
NORAD 61924·PAYLOAD·🇺🇸 United States

Gestartet Nov 11, 2024 von Cape Canaveral Space Force Station

Loading…

Nächste Überflüge (nächste 24 Stunden)

TLE

AktuellSource: CelesTrak SupGP

Epoche: Sep 14, 2026, 21:09 UTC

1 61924C 24207N   26257.88173611 -.00013999  00000+0 -50710-3 0  2579
2 61924  43.0020 297.1140 0001413 266.6559  42.9017 15.27581595    17

Verfolge STARLINK-32564 in Echtzeit mit AllMySat

Download on the App Store